Tracking 34352 objects as of 8-Jun-2026
HD Live streaming from Space Station
objects crossing your sky now

DELTA 1 DEB

Track DELTA 1 DEB now!
10-day predictions


NORAD ID: 7145
Int'l Code: 1973-086DK
Perigee: 1,512.9 km
Apogee: 2,030.1 km
Inclination: 101.9 °
Period: 121.9 minutes
Semi major axis: 8142 km
RCS: 0.3002 m2 (medium)
Launch date: November 6, 1973
Source: United States (US)
Launch site: AIR FORCE WESTERN TEST RANGE (AFWTR)

Note: This is SATELLITE DEBRIS
Your satellite tracking list
Your tracking list is empty




NASA's NSSDC Master Catalog

Two Line Element Set (TLE):
1 07145U 73086DK  26159.03644802  .00000001  00000-0  49779-3 0  9991
2 07145 101.9379 323.9569 0317580  81.1487  37.2928 11.81590498267720
Source of the keplerian elements: AFSPC